Aeroporto :
LOGIN :

Iscrizione | Disclaimer

   EN    FR    IT 

 










Sommario :    VFR   VFR Marginale   IFR   IFR Intensivo   IFR Molto Intensivo
Visibilità : 
Base nubi : 
>= 8 km
>= 3000ft
5 / 8 km
1000 / 3000 ft
1500m / 5 km
500 / 1000 ft
800 / 1500m
200 / 500 ft
< 800m
< 200 ft
Simboli :   Temporali  Nebbia  Neve Forte  Precipitazioni Forti  Vento > 20 kt
SIGMETs :   Varie  Temporali  Ghiacco  Turbolenza  Onda orograficha  Ceneri Vulcaniche






- Altitudine del aeroporto : 628 ft
- Codice IATA : CMR


LFGA - Colmar-Houssen

ULTIMO METAR :
  • 120230Z AUTO 21004KT 9999 SCT036 OVC043 04/03 Q1006

METARs OBSOLETI :
  • 120200Z AUTO 22004KT 190V250 9999 SCT038 BKN047 OVC056 04/03 Q1007
  • 120130Z AUTO VRB02KT 9999 FEW012 BKN038 BKN050 04/03 Q1007
  • 120100Z AUTO VRB01KT 9999 SCT013 BKN047 OVC120 03/02 Q1007
  • 120030Z AUTO VRB02KT 9999 BKN044 BKN052 BKN120 04/03 Q1007
  • 120000Z AUTO VRB03KT 9999 OVC046 03/03 Q1008

TAF N/A



MetMap, La meteo Aeronautica in un colpo d'occhio ! - Copyright ORBIFLY Dicembre 2007 - Disclaimer

ORBIFLY MET'MAP TEAM :

Programmazione e sviluppo : Alexandra Zaïnal
Concezione : Baudouin d'Aumeries
Aiuto per la programmazione : Marc-Olivier Méhu
Supporto tecnico e logistico : Manuel Goepfert
Aiuto per la traduzione : Arnaldo La Scala

Contatto : metmap@orbifly.com




FONTI E CREDITI :

   NOAA